ASIASAT 9 (42942 NORAD) Tracking and Keplerian Element Data

This shows tracking and keplerian element data for the satellite.

Feedback or suggestion? Click here.




ElementValue
Catalog42942
NameASIASAT 9
Epoch Orbit2686
Epoch Day34.70781352
Epoch Year2025
RAAN80.1167
Inclination0.0127
Eccentricity0.0002185
Argument of Perigee223.7215
Mean Anonmoly207.1762
Mean Motion1.00271883
Decay Rate-3.56E-06
L11 42942U 17057A 25034.70781352 -.00000356 00000+0 00000+0 0 9991
L22 42942 0.0127 80.1167 0002185 223.7215 207.1762 1.00271883 26861



Live tracking and technical data element details for ASIASAT 9 (NORAD 42942). ASIASAT 9 can be tracked NOW for your location showing map with azimuth and elevation plus other details from your city location.







IsCatalogInMostPopularTable: catalog: 42942, numindb: 734
Update: records affected: 1



GetName: 42942 ASIASAT 9

Hit Count: updated at: Sat, 17 May 2025 08:41:11 GMT